Vertical_Velocity
-2 -1 -1 -0 -0 0 0 -0 0 0 0 0 -0 -1 -1 0 -0 -0 -1 0 0 1 1 2 2 1 -0 -1 -1 -1 -1 -1 -1 -2 -2 -2 -2 -2 -2 -3 -2 -1 -0 -1 -1 -1 -1 -2 -1 0 1 2 2 1 -0 -1 -2 -2 -2 -0 -0 -0 -0 1 -0 -1 -3 -5 -6
-1 -1 -1 -1 -0 0 0 0 0 -0 -0 -0 -0 -0 -1 -0 -0 -1 -1 -1 -1 0 1 1 1 1 1 -1 -1 -0 -0 -1 -2 -2 -2 -1 -2 -2 -2 -2 -2 -1 -1 -1 -1 -2 -2 -2 -1 0 1 2 2 1 -1 -2 -2 -1 -1 -0 -0 -0 0 1 -0 -2 -4 -5 -5
-1 -2 -2 -2 -1 -1 -0 0 0 -0 -1 -1 -1 -0 -0 -1 -1 -1 -1 -2 -1 -0 0 0 0 1 1 -0 -1 -1 -0 -1 -2 -2 -2 -1 -1 -1 -1 -1 -1 -1 -1 -1 -2 -2 -2 -1 -0 1 2 2 1 0 -1 -3 -2 -1 0 0 0 0 0 0 -1 -2 -3 -4 -4
-2 -2 -2 -2 -2 -2 -1 -0 -0 -0 -0 -1 -1 -1 -1 -1 -1 -1 -1 -1 -1 -1 -1 -0 0 0 1 1 -0 -1 -1 -1 -1 -1 -1 -1 -0 -0 -0 0 0 -1 -2 -2 -2 -2 -2 -1 -0 1 2 2 1 -0 -1 -3 -2 -1 0 1 1 1 1 1 -0 -1 -2 -3 -3
-3 -2 -2 -2 -2 -2 -1 -1 -0 -0 -0 -0 -0 -1 -1 -1 -1 -1 -1 -1 -1 -1 -1 -0 0 0 1 1 0 -0 -0 -0 -0 0 0 0 0 0 0 1 0 -0 -1 -2 -2 -2 -2 -2 -1 1 2 2 1 0 -1 -2 -2 -1 -0 1 1 1 1 1 0 -1 -1 -2 -2
-3 -3 -2 -2 -1 -1 -1 -1 0 0 0 0 0 -0 -1 -1 -0 -0 -0 -0 -1 -1 -1 -0 0 1 1 1 1 1 1 1 1 1 1 1 1 1 1 0 0 0 -0 -1 -1 -2 -2 -2 -1 0 1 2 1 0 -1 -1 -1 -1 0 1 0 1 1 1 0 -0 -1 -1 -2
-1 -1 -2 -2 -1 -1 -1 -0 -0 0 0 1 1 0 0 0 0 0 0 0 -0 -0 -0 0 1 1 1 2 2 3 2 2 1 1 2 1 1 1 0 -0 -0 -0 -0 -1 -1 -2 -2 -2 -1 -0 0 1 1 0 -0 -1 -1 -1 0 1 0 0 0 1 0 -1 -1 -1 -2
-0 -0 -1 -1 -1 -1 -1 -0 -0 -0 0 0 1 0 0 0 0 1 1 1 1 1 1 1 1 1 1 2 3 4 3 2 2 1 1 1 1 1 0 -0 -1 -1 -1 -1 -1 -2 -2 -2 -1 -0 0 0 0 0 -0 -1 -1 -0 0 0 0 -0 0 1 0 -0 -1 -1 -1
-1 -1 -1 -1 -1 -1 -1 -1 -1 -0 -0 0 0 0 0 0 0 0 1 1 1 1 2 1 1 1 2 3 3 3 3 2 2 1 1 1 1 0 -0 -1 -1 -1 -1 -1 -1 -1 -1 -1 -1 -0 -0 -1 -1 -0 -0 -0 -0 -0 -0 0 -0 -0 0 0 0 -0 -1 -1 -1
-1 -1 -1 -2 -2 -2 -2 -2 -2 -1 -1 -0 -0 -0 0 0 0 0 0 0 1 1 1 1 0 1 1 2 2 2 2 2 1 1 1 0 0 0 -0 -1 -1 -1 -1 -2 -1 -1 -1 -1 -0 -1 -1 -1 -1 -1 -0 0 0 -0 -0 -0 -0 -0 -0 -0 -0 -1 -1 -1 -1
-1 -1 -1 -1 -1 -1 -1 -2 -2 -2 -1 -1 -1 -0 -0 -0 0 0 0 0 1 0 -0 -1 -0 -0 0 1 1 1 1 1 1 1 1 1 0 0 0 -0 -0 -0 -1 -2 -2 -2 -1 -0 -0 -1 -1 -2 -1 -1 -0 0 0 -0 -0 -0 -1 -1 -0 -0 -1 -1 -1 -1 -1
-0 -1 -1 -0 -1 -1 -1 -1 -1 -1 -1 -1 -1 -1 -0 -0 0 0 0 1 1 0 -0 -1 -1 -0 -0 -0 -0 -0 0 1 1 1 1 1 1 1 0 0 0 -0 -1 -1 -2 -2 -1 -0 -1 -1 -2 -2 -1 -1 -0 0 0 0 -0 -1 -1 -1 -1 -1 -2 -2 -2 -1 -1
-0 -0 -0 -0 -0 -0 -0 -0 -0 -0 -0 -0 -1 -0 -0 -0 -0 0 1 1 1 1 0 -0 -0 0 0 0 -0 -0 0 1 1 2 2 2 2 1 1 0 0 -0 -1 -1 -2 -1 -1 -0 -1 -1 -2 -2 -1 -1 -0 0 0 0 -0 -1 -1 -1 -1 -2 -2 -3 -3 -2 -2
-0 -0 -0 -0 -0 -0 -0 -0 -0 -0 -0 -0 -1 -1 -0 -0 -1 -0 1 1 1 1 1 1 1 1 1 1 1 1 1 1 2 2 3 2 2 1 1 1 0 -0 -1 -1 -1 -1 -0 -0 -1 -1 -1 -1 -1 -1 -0 0 0 0 -0 -1 -1 -1 -2 -2 -3 -3 -3 -2 -2
-0 -0 -0 -0 -0 -0 -0 -0 -1 -1 -0 -1 -1 -1 -1 -1 -1 -0 0 1 1 1 2 2 2 2 2 2 2 1 1 1 2 2 3 2 2 1 1 1 0 -1 -1 -1 -1 -0 0 0 -0 -1 -1 -1 -1 -1 -0 0 0 0 0 -0 -1 -1 -2 -2 -2 -3 -2 -2 -2
-0 -0 -0 0 -0 -0 -0 -0 -1 -1 -0 -1 -1 -1 -1 -1 -1 -1 -0 -0 0 1 1 2 2 2 2 2 2 1 1 1 2 2 2 2 1 1 1 1 -0 -1 -1 -1 -1 -0 0 0 -0 -0 -1 -1 -1 -1 -0 0 0 1 0 0 -0 -1 -1 -2 -2 -2 -2 -2 -1
-1 -1 -0 0 0 -0 -0 -0 -0 -0 -0 -0 -1 -1 -1 -1 -1 -1 -1 -1 -1 -0 0 1 1 1 1 1 1 1 1 1 2 2 2 1 1 1 1 0 -0 -1 -1 -1 -0 0 0 0 -0 -0 -0 -0 -0 -0 -0 -0 0 1 1 0 0 -0 -1 -1 -2 -2 -2 -1 -1
-1 -1 -1 -1 -0 -0 -0 -0 -0 -0 -0 -0 -0 -0 -1 -1 -1 -1 -1 -2 -1 -1 -0 -0 -0 -0 0 0 0 1 1 1 2 2 2 1 1 1 1 0 -0 -0 -1 -0 -0 0 0 0 -0 -0 -0 -0 -0 -0 -0 -0 0 1 1 1 0 0 -0 -1 -1 -1 -1 -1 -0
-2 -2 -2 -1 -1 -1 -1 -1 -0 -0 -0 -0 -0 -0 -1 -1 -1 -1 -1 -2 -2 -2 -1 -1 -1 -1 -1 -1 -0 -0 1 1 2 2 2 1 1 1 1 0 -0 -0 0 0 0 0 -0 -0 -0 -0 0 0 0 0 -0 -0 0 1 1 1 1 1 0 -0 -1 -1 -1 -0 -0
-2 -2 -2 -2 -2 -2 -1 -1 -1 -0 -0 -0 -0 -0 -0 -1 -1 -1 -1 -2 -2 -2 -2 -2 -2 -2 -2 -2 -2 -1 -1 -0 1 1 2 2 1 1 0 0 0 0 1 1 0 -0 -0 -0 -0 -0 0 0 1 0 0 -0 -0 0 1 1 1 1 1 0 -0 -0 -0 -0 -0
-2 -2 -2 -2 -2 -2 -2 -2 -1 -1 -0 -0 -0 -0 -0 -0 -0 -0 -0 -1 -1 -2 -2 -3 -2 -2 -3 -3 -3 -3 -3 -2 -1 -0 1 1 1 1 1 1 0 1 1 2 1 0 -0 -1 -0 0 0 1 1 1 0 -0 0 0 1 1 2 1 1 1 0 -0 -0 -0 -1
-2 -2 -2 -2 -2 -2 -2 -1 -1 -1 -0 -0 -0 -0 0 0 0 0 0 -0 -0 -1 -1 -2 -2 -2 -3 -3 -3 -3 -4 -3 -3 -2 -1 -0 0 0 1 1 1 1 2 2 1 0 -0 -1 -0 0 1 1 1 1 1 0 0 1 1 2 2 2 2 1 1 0 -0 -1 -1
-2 -2 -2 -2 -2 -2 -2 -1 -1 -0 -0 -0 -0 -0 0 0 0 0 1 1 1 1 0 -0 -0 -1 -1 -2 -2 -3 -3 -3 -4 -3 -3 -2 -1 -0 0 1 1 2 2 2 1 -0 -0 -0 -0 1 1 2 2 2 1 1 1 1 2 2 2 2 2 2 1 1 -0 -1 -1
-1 -2 -2 -2 -2 -2 -2 -1 -1 -0 -0 -0 0 0 0 -0 -0 0 1 1 1 1 2 2 2 1 1 0 -0 -1 -2 -2 -3 -3 -3 -2 -1 -1 0 1 1 2 2 2 0 -0 -1 -0 0 1 1 2 2 2 2 2 2 2 2 2 3 3 3 3 2 1 0 -1 -2
-1 -1 -1 -2 -2 -2 -2 -2 -1 -1 -0 0 0 0 0 -0 0 0 0 1 1 1 1 2 2 3 3 3 2 1 -0 -1 -1 -1 -2 -2 -2 -1 -0 1 1 2 2 1 0 -1 -1 -0 0 1 1 2 2 2 2 2 2 2 2 3 3 4 4 4 3 1 0 -1 -1
-0 -1 -1 -1 -1 -2 -2 -2 -2 -1 -1 -0 0 1 1 0 0 0 0 0 0 1 1 1 2 3 4 4 4 3 1 0 0 -0 -0 -1 -1 -1 -0 0 1 1 2 1 -0 -1 -2 -1 -0 1 1 1 2 2 2 2 3 3 3 3 4 4 5 4 3 1 -0 -1 -1
1 0 -0 -1 -1 -1 -2 -2 -2 -1 -1 -1 0 1 1 1 1 0 0 0 0 0 1 1 1 1 3 4 4 4 3 2 1 0 0 0 1 0 0 0 1 1 1 1 -1 -2 -2 -2 -1 -0 1 1 2 2 2 2 3 3 3 4 4 5 5 5 3 2 0 -1 -1
1 1 0 -0 -0 -1 -2 -2 -2 -2 -1 -1 0 0 1 1 1 1 0 0 0 1 1 0 0 1 1 2 3 3 3 3 2 1 1 1 2 1 1 1 1 1 1 1 -1 -2 -3 -3 -2 -1 -0 1 2 3 3 2 2 3 4 5 5 5 5 4 3 2 1 0 -0
1 1 1 0 -0 -1 -1 -1 -2 -2 -1 -0 0 1 1 2 1 1 0 0 1 1 1 0 0 1 1 0 0 1 3 3 2 1 1 1 2 2 2 1 1 1 1 1 -1 -2 -3 -3 -3 -2 -2 -1 2 4 5 4 2 2 3 5 6 6 5 4 3 2 2 1 0
1 1 1 1 0 -0 -1 -1 -1 -1 -1 -0 0 1 1 2 2 1 1 1 1 1 1 1 1 1 0 -1 -1 0 1 1 1 1 1 1 1 2 2 2 2 2 1 0 -1 -2 -3 -3 -3 -3 -3 -3 -1 2 6 8 5 3 2 4 5 6 5 4 3 2 2 1 1
1 1 1 1 1 0 0 -0 -1 -1 -1 -0 1 1 1 2 2 2 2 2 1 1 2 4 3 1 0 -1 -1 -1 -0 0 1 1 1 1 1 1 2 3 3 2 1 -0 -2 -2 -2 -2 -2 -3 -4 -4 -4 -1 4 9 9 6 4 3 4 4 4 4 3 3 2 1 1
0 1 1 0 1 1 1 1 0 -0 0 1 1 1 1 2 2 3 3 2 2 2 3 5 4 3 1 1 -0 -1 -1 -0 1 1 1 1 0 1 2 3 3 2 1 -0 -1 -2 -2 -2 -2 -3 -4 -4 -5 -3 0 7 11 10 7 4 3 3 3 4 3 3 2 2 1
0 0 0 0 0 0 1 1 1 1 1 1 1 1 1 1 3 4 4 3 3 4 5 6 5 4 3 2 1 -0 -1 -0 0 0 0 0 0 1 2 3 2 2 1 -0 -1 -1 -1 -1 -2 -3 -4 -4 -5 -4 -1 4 9 12 11 6 3 2 3 3 3 3 2 2 2
0 0 -0 -0 0 0 1 1 1 1 1 1 1 2 2 2 2 3 4 4 4 5 6 7 6 6 4 4 2 1 -0 -0 0 -0 -0 -0 0 1 2 2 2 1 0 0 -0 -1 -1 -2 -2 -3 -4 -4 -4 -4 -2 1 6 10 12 9 5 3 2 3 3 3 2 2 3
1 0 -1 -1 -0 0 0 0 0 1 1 1 1 1 2 2 3 3 3 3 4 5 6 7 7 7 6 5 4 3 1 -0 -0 -0 -1 -1 -0 1 2 2 2 1 0 -0 -1 -0 -1 -1 -2 -3 -4 -4 -4 -3 -1 0 4 8 11 11 7 4 2 2 1 1 2 2 3
1 0 -1 -1 -1 -0 -0 -0 -0 0 1 1 1 1 1 2 2 3 2 2 3 4 5 6 7 8 8 6 5 4 3 1 0 -1 -1 -1 -0 1 2 3 3 1 0 -1 -1 -1 -1 -1 -2 -3 -4 -4 -3 -2 -1 -0 3 6 10 12 9 6 3 1 0 0 1 2 3
1 -0 -1 -2 -1 -1 -0 -1 -0 -0 -0 0 1 1 0 1 1 2 2 2 2 2 3 6 7 7 7 7 6 6 5 4 1 -0 -1 -1 -1 -0 1 3 4 2 1 -1 -1 -1 -1 -1 -2 -3 -3 -3 -3 -2 -1 -0 1 5 8 11 9 7 4 2 0 0 1 2 3
1 0 -1 -2 -2 -1 -0 -0 -0 -0 -1 -0 0 0 0 0 0 1 1 2 1 1 1 4 6 6 6 7 7 7 6 5 3 1 -1 -1 -1 -1 0 3 4 3 2 -0 -1 -1 -1 -1 -2 -3 -3 -2 -2 -1 -1 -0 1 4 6 9 9 7 5 3 1 1 2 3 3
1 0 -0 -1 -1 -1 -1 -0 -0 -0 -1 -1 -1 -0 -0 -0 -0 0 1 2 1 1 1 2 3 4 5 6 6 7 7 6 4 2 -0 -1 -2 -1 -0 2 3 4 2 1 -1 -1 -1 -2 -3 -3 -3 -2 -2 -1 -0 0 1 3 4 7 8 7 5 3 2 2 2 3 4
1 1 0 -0 -1 -1 -1 -0 -0 0 -0 -1 -1 -1 -1 -0 -1 -0 1 2 2 2 1 1 2 3 4 5 5 6 6 7 6 4 1 -1 -2 -1 -1 1 2 3 3 1 0 -1 -1 -2 -3 -3 -3 -2 -1 -1 0 1 1 2 3 4 6 6 5 3 2 3 4 4 4
2 1 0 -0 0 -0 -1 -2 -1 0 0 0 -1 -2 -1 -1 -1 0 1 2 3 3 3 2 1 2 3 3 3 4 5 6 6 5 3 0 -1 -1 -1 -1 0 1 2 1 1 0 -1 -1 -2 -3 -3 -2 -2 -0 1 2 2 2 2 3 4 5 6 4 3 3 4 4 4
Height
5712 5711 5709 5707 5705 5703 5701 5699 5697 5695 5694 5692 5690 5688 5687 5685 5684 5683 5681 5680 5679 5678 5677 5675 5675 5673 5672 5670 5669 5668 5666 5665 5664 5662 5661 5660 5658 5657 5655 5654 5653 5652 5651 5650 5649 5647 5646 5645 5643 5642 5640 5639 5637 5636 5634 5633 5631 5630 5628 5627 5625 5623 5620 5618 5616 5614 5612 5610 5609
5709 5707 5705 5704 5702 5700 5698 5696 5694 5692 5690 5688 5686 5685 5683 5681 5680 5679 5677 5676 5674 5673 5672 5671 5670 5669 5667 5666 5665 5663 5662 5660 5659 5658 5656 5655 5654 5652 5651 5650 5649 5648 5647 5646 5645 5643 5642 5640 5639 5638 5636 5635 5633 5632 5630 5629 5627 5626 5624 5623 5620 5619 5616 5615 5612 5610 5609 5607 5605
5706 5704 5702 5700 5699 5697 5695 5693 5691 5689 5687 5685 5683 5681 5680 5678 5676 5675 5673 5671 5670 5669 5668 5666 5665 5664 5663 5661 5660 5659 5657 5656 5655 5653 5652 5651 5650 5648 5647 5646 5645 5644 5643 5642 5640 5639 5638 5636 5635 5634 5632 5631 5629 5628 5626 5625 5623 5621 5620 5618 5616 5615 5613 5611 5609 5607 5605 5603 5602
5703 5701 5699 5697 5695 5694 5692 5690 5688 5686 5684 5682 5680 5678 5676 5674 5673 5671 5669 5668 5666 5665 5664 5662 5661 5660 5658 5657 5655 5654 5653 5651 5650 5649 5648 5646 5645 5644 5643 5642 5641 5640 5639 5638 5636 5635 5634 5632 5631 5630 5628 5626 5625 5623 5622 5620 5619 5617 5616 5614 5612 5611 5609 5607 5605 5603 5601 5600 5598
5700 5698 5696 5694 5692 5690 5689 5687 5685 5683 5681 5679 5677 5675 5673 5671 5669 5668 5666 5664 5663 5661 5660 5658 5657 5656 5655 5653 5651 5650 5649 5647 5646 5645 5644 5643 5641 5640 5639 5638 5637 5636 5635 5634 5632 5631 5630 5628 5627 5625 5624 5622 5620 5619 5617 5616 5614 5613 5612 5610 5609 5607 5605 5604 5602 5600 5598 5597 5595
5696 5695 5693 5691 5689 5688 5686 5684 5682 5680 5678 5676 5675 5673 5670 5669 5667 5665 5663 5661 5660 5658 5656 5655 5654 5652 5651 5649 5648 5646 5645 5644 5642 5641 5640 5639 5638 5637 5635 5634 5633 5632 5631 5630 5628 5627 5625 5624 5622 5621 5620 5618 5616 5615 5613 5611 5610 5609 5608 5606 5605 5603 5602 5600 5598 5596 5595 5593 5592
5694 5692 5690 5688 5686 5685 5683 5681 5679 5677 5675 5674 5672 5670 5668 5666 5664 5662 5660 5659 5657 5655 5653 5652 5650 5649 5647 5646 5645 5643 5642 5640 5639 5638 5636 5635 5634 5633 5632 5630 5629 5628 5627 5625 5624 5622 5621 5619 5618 5616 5615 5614 5612 5610 5609 5607 5606 5605 5604 5602 5601 5600 5598 5596 5595 5593 5591 5590 5588
5691 5689 5687 5685 5683 5681 5680 5678 5676 5674 5672 5671 5669 5667 5665 5663 5661 5660 5658 5656 5654 5652 5650 5649 5647 5646 5644 5643 5641 5640 5638 5637 5635 5634 5633 5631 5630 5629 5628 5626 5625 5624 5622 5621 5619 5618 5616 5615 5614 5612 5611 5609 5608 5606 5605 5603 5602 5601 5600 5599 5597 5596 5595 5593 5591 5590 5588 5587 5585
5688 5685 5684 5682 5680 5678 5676 5674 5672 5671 5669 5667 5665 5664 5662 5660 5658 5656 5655 5653 5651 5649 5647 5646 5644 5642 5641 5640 5638 5636 5635 5633 5632 5630 5629 5628 5626 5625 5624 5622 5621 5619 5618 5616 5615 5613 5612 5610 5609 5608 5606 5605 5604 5602 5601 5599 5598 5597 5596 5595 5594 5592 5591 5589 5588 5586 5585 5583 5582
5684 5682 5680 5678 5676 5674 5672 5670 5669 5667 5665 5663 5661 5660 5658 5656 5654 5653 5651 5649 5647 5646 5644 5642 5640 5639 5637 5636 5634 5633 5631 5630 5628 5626 5625 5624 5622 5621 5619 5618 5616 5615 5613 5612 5610 5609 5607 5606 5605 5603 5602 5601 5599 5598 5597 5595 5594 5593 5592 5591 5590 5588 5587 5586 5584 5583 5581 5580 5578
5680 5679 5677 5675 5673 5671 5669 5667 5665 5663 5661 5660 5658 5656 5654 5652 5650 5649 5647 5645 5643 5642 5640 5638 5636 5635 5634 5632 5630 5629 5627 5625 5624 5622 5621 5620 5618 5616 5615 5613 5612 5610 5609 5607 5606 5604 5603 5601 5600 5599 5598 5596 5595 5594 5593 5592 5590 5589 5588 5587 5586 5585 5583 5582 5580 5579 5578 5576 5575
5677 5675 5673 5671 5669 5667 5665 5663 5661 5660 5658 5656 5654 5652 5650 5648 5646 5645 5643 5641 5639 5638 5636 5634 5632 5631 5629 5628 5626 5625 5623 5621 5620 5618 5617 5615 5614 5612 5610 5609 5607 5606 5604 5603 5601 5600 5598 5597 5596 5595 5593 5592 5591 5590 5589 5588 5587 5585 5584 5583 5582 5581 5580 5578 5577 5575 5574 5573 5571
5673 5671 5670 5668 5665 5664 5662 5660 5658 5656 5654 5652 5650 5648 5646 5644 5642 5640 5639 5637 5635 5634 5632 5630 5628 5626 5625 5623 5622 5620 5619 5617 5616 5614 5613 5611 5609 5608 5606 5604 5603 5601 5600 5598 5597 5595 5594 5593 5591 5590 5589 5588 5587 5586 5585 5584 5583 5582 5580 5579 5578 5577 5576 5574 5573 5572 5570 5569 5568
5670 5668 5666 5664 5662 5660 5658 5656 5654 5652 5650 5648 5646 5644 5642 5640 5639 5637 5635 5633 5631 5630 5628 5626 5624 5623 5621 5619 5618 5616 5615 5613 5612 5610 5609 5607 5605 5603 5601 5600 5598 5597 5595 5594 5592 5591 5590 5588 5587 5586 5585 5584 5583 5582 5581 5580 5579 5578 5576 5575 5574 5573 5572 5570 5569 5568 5566 5565 5564
5666 5664 5662 5660 5658 5656 5655 5652 5650 5649 5646 5645 5642 5640 5639 5637 5635 5633 5631 5630 5628 5626 5624 5622 5620 5619 5617 5615 5614 5612 5610 5609 5607 5606 5604 5602 5601 5599 5597 5595 5594 5592 5590 5589 5588 5586 5585 5584 5583 5582 5580 5580 5579 5578 5577 5576 5575 5574 5572 5571 5570 5569 5568 5566 5565 5564 5563 5562 5560
5662 5660 5658 5656 5655 5653 5650 5649 5647 5645 5643 5641 5639 5637 5635 5633 5631 5629 5627 5625 5624 5622 5620 5618 5616 5615 5613 5611 5610 5608 5606 5605 5603 5601 5600 5598 5596 5595 5593 5591 5589 5588 5586 5585 5583 5582 5581 5580 5579 5577 5576 5575 5574 5573 5572 5571 5570 5570 5568 5567 5566 5565 5564 5562 5561 5560 5559 5558 5556
5658 5656 5654 5652 5650 5649 5647 5645 5643 5641 5639 5637 5635 5633 5631 5629 5627 5625 5623 5621 5620 5618 5616 5614 5612 5610 5609 5607 5605 5604 5602 5600 5599 5597 5595 5594 5592 5590 5588 5587 5585 5583 5582 5580 5579 5578 5577 5575 5574 5573 5572 5571 5570 5569 5568 5567 5566 5565 5564 5563 5562 5561 5560 5558 5557 5556 5555 5554 5553
5654 5652 5650 5648 5646 5645 5642 5640 5639 5637 5635 5633 5631 5629 5626 5625 5623 5620 5619 5617 5615 5613 5612 5610 5608 5606 5604 5602 5601 5599 5597 5596 5594 5593 5591 5589 5587 5586 5584 5582 5580 5579 5577 5576 5575 5573 5572 5571 5570 5569 5568 5567 5566 5565 5564 5563 5562 5561 5560 5559 5558 5556 5555 5554 5553 5552 5551 5550 5549
5650 5648 5646 5644 5642 5640 5638 5636 5634 5632 5630 5628 5626 5624 5622 5620 5618 5616 5614 5612 5610 5609 5607 5605 5603 5601 5600 5598 5596 5595 5593 5591 5590 5588 5586 5585 5583 5581 5580 5578 5576 5575 5573 5571 5570 5569 5568 5566 5565 5565 5564 5562 5561 5560 5559 5558 5557 5556 5555 5555 5553 5552 5551 5550 5549 5548 5547 5546 5545
5645 5643 5641 5639 5637 5635 5633 5631 5630 5628 5626 5624 5622 5620 5618 5616 5614 5612 5610 5608 5606 5604 5602 5600 5599 5597 5595 5593 5591 5590 5588 5586 5585 5583 5581 5580 5578 5577 5575 5573 5572 5570 5569 5567 5566 5564 5563 5562 5561 5560 5559 5558 5557 5556 5555 5554 5553 5552 5551 5550 5549 5548 5547 5546 5545 5544 5543 5541 5540
5641 5639 5637 5635 5633 5631 5629 5627 5625 5623 5621 5619 5617 5615 5613 5611 5609 5607 5605 5603 5601 5599 5598 5596 5594 5592 5590 5588 5586 5585 5583 5581 5580 5578 5576 5575 5573 5572 5570 5569 5567 5566 5564 5563 5561 5560 5558 5557 5556 5555 5555 5554 5553 5552 5551 5550 5549 5548 5547 5545 5545 5544 5543 5542 5540 5540 5538 5537 5536
5636 5634 5632 5630 5628 5626 5624 5622 5620 5618 5616 5614 5612 5610 5609 5607 5605 5603 5601 5599 5597 5595 5593 5591 5590 5588 5585 5584 5582 5580 5578 5576 5575 5573 5571 5570 5568 5567 5565 5564 5563 5561 5560 5558 5557 5555 5554 5553 5552 5551 5550 5549 5548 5547 5546 5545 5544 5543 5542 5541 5540 5539 5538 5537 5536 5535 5534 5533 5531
5632 5630 5627 5625 5623 5621 5619 5617 5615 5613 5611 5610 5608 5606 5604 5602 5600 5598 5596 5594 5592 5590 5589 5587 5585 5583 5581 5579 5577 5575 5574 5572 5570 5568 5567 5565 5564 5562 5560 5559 5558 5557 5555 5554 5552 5550 5549 5548 5547 5546 5545 5544 5544 5543 5542 5540 5540 5539 5538 5537 5536 5535 5534 5533 5532 5530 5530 5528 5527
5626 5625 5622 5620 5618 5616 5614 5612 5610 5608 5606 5605 5602 5600 5599 5597 5595 5593 5591 5590 5588 5586 5584 5582 5580 5579 5577 5575 5573 5571 5569 5567 5565 5564 5562 5560 5559 5557 5556 5554 5553 5552 5550 5549 5547 5545 5544 5543 5542 5541 5540 5540 5539 5538 5537 5536 5535 5534 5533 5532 5531 5530 5529 5528 5527 5526 5525 5524 5522
5621 5619 5617 5615 5613 5611 5609 5607 5605 5603 5601 5599 5597 5595 5594 5592 5590 5588 5586 5585 5583 5581 5579 5578 5576 5574 5572 5570 5568 5566 5565 5563 5561 5560 5558 5556 5554 5553 5551 5550 5548 5547 5545 5544 5542 5541 5540 5539 5537 5536 5535 5535 5534 5533 5532 5531 5530 5530 5529 5528 5527 5526 5525 5524 5523 5521 5520 5519 5518
5616 5614 5612 5610 5608 5606 5604 5602 5600 5598 5596 5594 5592 5590 5588 5586 5585 5583 5581 5579 5578 5576 5574 5572 5570 5569 5567 5565 5564 5562 5560 5558 5556 5555 5553 5551 5550 5548 5546 5545 5543 5542 5540 5539 5537 5536 5535 5534 5533 5532 5530 5530 5529 5528 5527 5526 5525 5525 5524 5523 5522 5521 5520 5519 5518 5517 5515 5514 5513
5610 5609 5606 5604 5602 5600 5598 5596 5594 5592 5590 5589 5587 5585 5583 5581 5579 5577 5575 5574 5572 5570 5569 5567 5565 5564 5562 5560 5559 5557 5555 5553 5551 5550 5548 5546 5545 5543 5541 5540 5538 5537 5535 5534 5532 5531 5530 5529 5528 5527 5526 5525 5524 5523 5522 5521 5520 5520 5519 5518 5517 5516 5515 5514 5513 5512 5510 5510 5508
5605 5603 5601 5599 5597 5595 5592 5590 5588 5586 5585 5583 5581 5580 5578 5576 5574 5572 5570 5568 5566 5565 5563 5561 5560 5558 5556 5555 5553 5551 5550 5548 5546 5545 5543 5541 5540 5538 5536 5535 5533 5532 5530 5529 5527 5526 5525 5524 5523 5522 5521 5520 5519 5518 5517 5516 5515 5515 5514 5513 5512 5511 5510 5509 5508 5507 5506 5505 5503
5600 5598 5595 5593 5591 5589 5587 5585 5582 5580 5579 5577 5575 5574 5572 5570 5568 5566 5565 5563 5561 5559 5557 5555 5554 5552 5550 5549 5547 5546 5544 5543 5541 5539 5538 5536 5535 5533 5531 5530 5528 5526 5525 5524 5522 5520 5520 5518 5517 5516 5515 5515 5514 5513 5512 5511 5510 5509 5509 5508 5507 5506 5505 5504 5503 5502 5500 5500 5499
5594 5592 5590 5588 5585 5583 5581 5579 5577 5575 5573 5571 5570 5568 5566 5565 5563 5561 5559 5557 5555 5553 5551 5550 5548 5546 5545 5543 5542 5540 5539 5537 5535 5534 5532 5531 5530 5528 5526 5525 5523 5521 5520 5518 5517 5515 5514 5513 5512 5511 5510 5510 5509 5508 5508 5506 5505 5504 5503 5503 5502 5501 5500 5499 5498 5497 5495 5495 5494
5588 5586 5584 5582 5580 5577 5575 5573 5571 5569 5567 5565 5564 5562 5560 5559 5557 5555 5553 5551 5550 5548 5546 5544 5542 5540 5539 5537 5536 5534 5533 5531 5530 5528 5527 5525 5524 5523 5521 5519 5518 5516 5514 5513 5511 5510 5509 5508 5507 5506 5505 5504 5504 5503 5503 5502 5500 5499 5498 5497 5496 5496 5495 5494 5493 5491 5490 5489 5488
5582 5580 5578 5576 5574 5571 5570 5567 5565 5563 5561 5559 5558 5556 5554 5553 5551 5549 5547 5545 5544 5542 5540 5539 5537 5535 5533 5531 5530 5528 5527 5526 5524 5523 5521 5520 5519 5517 5516 5514 5512 5510 5509 5507 5506 5505 5504 5503 5502 5501 5500 5499 5498 5498 5498 5497 5496 5494 5492 5491 5490 5490 5489 5488 5487 5486 5485 5484 5483
5576 5574 5571 5570 5567 5565 5563 5561 5559 5557 5555 5553 5551 5550 5548 5546 5545 5543 5541 5540 5538 5536 5535 5533 5531 5529 5527 5526 5524 5523 5521 5520 5519 5517 5516 5515 5513 5512 5510 5509 5507 5505 5504 5502 5501 5500 5499 5498 5497 5495 5495 5493 5492 5492 5492 5492 5491 5490 5488 5486 5485 5484 5483 5483 5482 5481 5480 5479 5478
5569 5567 5565 5563 5561 5559 5557 5555 5553 5551 5549 5547 5545 5544 5542 5540 5539 5537 5535 5534 5532 5530 5529 5527 5525 5523 5521 5520 5518 5517 5515 5514 5513 5511 5510 5509 5507 5506 5505 5504 5502 5500 5499 5497 5496 5495 5494 5492 5491 5490 5489 5488 5487 5487 5487 5486 5486 5485 5483 5481 5479 5478 5478 5477 5476 5475 5474 5473 5472
5562 5560 5558 5556 5555 5553 5551 5549 5547 5545 5543 5541 5539 5537 5536 5534 5532 5531 5529 5528 5526 5525 5523 5521 5520 5518 5516 5514 5512 5511 5509 5508 5507 5505 5504 5503 5502 5501 5500 5498 5496 5495 5493 5492 5490 5489 5488 5487 5486 5485 5484 5483 5482 5482 5481 5481 5480 5480 5478 5476 5474 5473 5472 5471 5470 5470 5469 5468 5467
5556 5554 5551 5550 5548 5546 5544 5542 5540 5538 5536 5535 5533 5531 5529 5528 5526 5525 5523 5521 5520 5518 5517 5515 5513 5511 5510 5508 5506 5505 5503 5502 5500 5499 5498 5497 5496 5495 5494 5492 5491 5489 5487 5486 5485 5484 5483 5482 5481 5480 5479 5478 5477 5477 5476 5476 5475 5474 5473 5471 5470 5468 5467 5466 5465 5464 5463 5462 5461
5549 5547 5545 5543 5541 5539 5537 5535 5534 5531 5530 5528 5526 5525 5523 5521 5520 5518 5516 5515 5513 5511 5510 5509 5507 5505 5504 5502 5500 5499 5497 5496 5494 5493 5492 5491 5490 5489 5488 5487 5485 5483 5482 5480 5479 5479 5478 5476 5475 5475 5474 5473 5472 5472 5471 5470 5470 5469 5468 5466 5465 5463 5461 5460 5459 5458 5458 5457 5456
5542 5540 5538 5536 5534 5532 5531 5529 5527 5525 5523 5521 5520 5518 5516 5515 5513 5511 5510 5508 5506 5505 5503 5502 5500 5499 5497 5496 5494 5493 5491 5490 5488 5487 5486 5485 5484 5483 5482 5481 5479 5478 5476 5475 5474 5473 5472 5471 5470 5469 5469 5468 5467 5467 5466 5465 5465 5464 5463 5462 5460 5458 5456 5455 5454 5453 5452 5452 5451
5536 5534 5531 5529 5527 5525 5524 5522 5520 5518 5516 5514 5513 5511 5510 5508 5506 5505 5503 5501 5500 5498 5496 5495 5494 5492 5491 5489 5488 5487 5485 5484 5482 5481 5480 5478 5477 5477 5476 5475 5474 5472 5470 5469 5468 5467 5466 5465 5465 5464 5463 5463 5462 5462 5461 5460 5460 5459 5458 5457 5455 5454 5452 5450 5449 5448 5447 5446 5446
5530 5527 5525 5523 5521 5519 5517 5515 5513 5512 5510 5508 5506 5504 5503 5501 5500 5498 5497 5495 5493 5491 5490 5488 5487 5485 5484 5483 5481 5480 5479 5478 5476 5475 5473 5472 5471 5470 5470 5469 5468 5466 5465 5463 5462 5461 5460 5460 5459 5458 5458 5457 5457 5457 5456 5455 5455 5454 5453 5452 5450 5449 5447 5445 5444 5443 5442 5442 5441
5523 5521 5519 5516 5514 5512 5510 5508 5506 5505 5503 5501 5500 5498 5496 5495 5493 5492 5490 5489 5487 5485 5483 5482 5480 5479 5477 5476 5475 5474 5473 5471 5470 5469 5467 5466 5465 5464 5464 5463 5461 5460 5459 5457 5456 5455 5455 5454 5453 5453 5452 5452 5452 5451 5451 5450 5450 5449 5448 5447 5445 5444 5442 5441 5440 5438 5438 5437 5436